7 * 24
多渠道服务支持
STARLINK-34065 是 SpaceX Starlink 卫星互联网项目中的一颗低轨卫星,属于第65批发射的星链卫星之一。该卫星运行在约550公里高度的近地轨道,旨在为全球用户提供高速互联网服务。作为星链星座的一部分,它与其他数千颗卫星协同工作,提升网络覆盖与连接稳定性。该计划致力于改善偏远地区的网络接入,同时推动全球通信技术的发展。
美国
(US)
| 数据来源 | 国际轨道数据 |
| 星历时间: | 2026-02-03T12:46:41+0800 22小时前 查看轨道信息 |
| 半长轴: | 6861.097km |
| 偏心率: | 0.0001211 |
| 轨道倾角: | 43.002° |
| 近地点辐角 | 266.078° |
| 升交点赤经 | 3.489° |
| 平近点角 | 93.993° |
| 近地点: | 482.129km |
| 远地点: | 483.791km |
| 周期: | 94.265分钟 |
| 每日圈数: | 15.2761 |